1495339200.17,36428,17.5,73916.3,1.75,0.91,0.97,0,*73
1495339201.37,36429,17.44,73912.8,1.75,0.97,0.87,0,*75
1495339202.6,36430,17.5,73908.8,1.75,0.79,0.79,0,*7C
1495339203.82,36431,17.5,73910.5,1.75,0.87,0.87,0,*7D
1495339204.99,36432,17.44,73914.0,1.75,0.97,0.97,0,*7E
1495339206.22,36433,17.5,73916.8,1.75,0.87,0.75,0,*72
1495339207.44,36434,17.5,73920.3,1.75,0.75,0.75,0,*78
1495339208.66,36435,17.5,73908.8,1.75,0.75,0.75,0,*79
1495339209.87,36436,17.44,73912.0,1.75,0.63,0.63,0,*7A
1495339211.1,36437,17.5,73914.5,1.75,0.55,0.51,0,*7F
1495339212.33,36438,17.44,73922.0,1.73,0.75,0.75,0,*72
1495339213.58,36439,17.5,73924.3,1.71,0.87,0.95,0,*72
1495339214.83,36440,17.5,73930.5,1.73,0.91,0.91,0,*7D
1495339216.08,36441,17.44,73934.3,1.73,0.79,0.75,0,*70
1495339217.32,36442,17.5,73936.3,1.73,0.87,0.91,0,*78
1495339218.52,36443,17.5,73938.0,1.73,0.97,0.97,0,*7E
1495339219.72,36444,17.5,73934.0,1.73,0.97,1.01,0,*47
1495339220.91,36445,17.5,73938.3,1.73,0.97,1.01,0,*46
1495339222.11,36446,17.5,73936.5,1.73,0.97,0.97,0,*7B
1495339223.31,36447,17.5,73926.5,1.73,1.05,1.01,0,*7E
1495339224.48,36448,17.44,73920.8,1.75,0.97,0.97,0,*73
1495339225.7,36449,17.5,73928.3,1.73,0.97,0.91,0,*72
1495339226.9,36450,17.5,73932.0,1.73,0.97,1.01,0,*42
1495339228.1,36451,17.5,73926.8,1.73,1.01,1.01,0,*7D
1495339229.3,36452,17.5,73920.5,1.73,1.01,1.01,0,*7E
1495339230.5,36453,17.5,73920.5,1.73,0.97,1.01,0,*41
1495339231.7,36454,17.5,73922.8,1.73,1.01,1.05,0,*7C
1495339232.93,36455,17.44,73918.0,1.73,0.97,0.91,0,*7F
1495339234.12,36456,17.44,73912.3,1.73,0.97,0.97,0,*7A
1495339235.31,36457,17.5,73908.5,1.73,1.01,0.97,0,*45
1495339236.55,36458,17.44,73914.5,1.71,0.95,0.95,0,*76
1495339237.74,36459,17.44,73924.3,1.73,0.97,0.97,0,*75
1495339239.0,36460,17.5,73922.0,1.73,0.91,0.91,0,*7F
1495339240.25,36461,17.5,73922.0,1.73,0.87,0.91,0,*79
1495339241.47,36462,17.44,73926.3,1.73,0.91,0.97,0,*7B
1495339242.69,36463,17.44,73912.3,1.73,0.97,0.91,0,*7A
1495339243.89,36464,17.5,73916.3,1.73,0.97,1.01,0,*45
1495339245.11,36465,17.5,73916.0,1.73,0.91,0.97,0,*7C
1495339246.33,36466,17.5,73922.8,1.71,0.97,0.95,0,*79
1495339247.54,36467,17.44,73914.0,1.71,0.95,0.97,0,*78
1495339248.74,36468,17.5,73926.0,1.73,0.97,1.01,0,*49
1495339249.94,36469,17.44,73908.5,1.73,0.97,1.01,0,*48
1495339251.14,36470,17.44,73916.3,1.75,0.97,0.91,0,*7E
1495339252.31,36471,17.5,73920.5,1.75,0.97,0.97,0,*79
1495339253.5,36472,17.5,73912.5,1.73,0.97,0.97,0,*7C
1495339254.7,36473,17.5,73912.3,1.73,0.97,0.97,0,*7D
1495339255.95,36474,17.5,73910.5,1.73,0.91,0.87,0,*7D
1495339257.14,36475,17.5,73918.5,1.73,0.97,0.97,0,*7B
1495339258.36,36476,17.44,73914.3,1.73,0.97,0.91,0,*7E
1495339259.56,36477,17.5,73914.3,1.73,0.97,0.97,0,*79
1495339260.75,36478,17.44,73910.5,1.73,0.97,0.97,0,*76
1495339261.95,36479,17.5,73920.5,1.73,1.01,1.01,0,*77
1495339263.2,36480,17.5,73920.5,1.73,0.91,0.79,0,*77
1495339264.44,36481,17.5,73920.3,1.73,0.79,0.79,0,*70
1495339265.68,36482,17.5,73914.3,1.71,0.83,0.75,0,*78
1495339266.9,36483,17.44,73906.8,1.73,0.87,0.97,0,*73
1495339268.13,36484,17.5,73908.5,1.73,0.97,0.91,0,*73
1495339269.32,36485,17.44,73914.8,1.73,0.97,0.97,0,*74
1495339270.52,36486,17.44,73910.0,1.73,0.97,1.01,0,*49
1495339271.71,36487,17.5,73918.3,1.73,0.97,0.97,0,*76
1495339272.96,36488,17.5,73918.5,1.73,0.91,0.91,0,*79
1495339274.15,36489,17.5,73920.0,1.73,0.97,0.97,0,*78
1495339275.4,36490,17.44,73922.3,1.73,0.87,0.87,0,*70
1495339276.65,36491,17.5,73914.3,1.73,0.79,0.87,0,*70
1495339277.89,36492,17.5,73918.0,1.73,0.87,0.87,0,*72
1495339279.13,36493,17.5,73916.5,1.73,0.87,0.79,0,*72
1495339280.37,36494,17.5,73920.5,1.71,0.75,0.75,0,*76
1495339281.61,36495,17.5,73922.5,1.71,0.75,0.79,0,*7B
1495339282.86,36496,17.5,73922.0,1.73,0.87,0.87,0,*76
1495339284.1,36497,17.5,73916.0,1.73,0.87,0.87,0,*77
1495339285.35,36498,17.44,73924.5,1.71,0.95,0.87,0,*79
1495339286.6,36499,17.5,73930.3,1.73,0.91,0.79,0,*7F
1495339287.84,36500,17.5,73920.3,1.73,0.87,0.79,0,*79
1495339289.08,36501,17.44,73922.8,1.71,0.83,0.75,0,*72
1495339290.33,36502,17.44,73926.5,1.71,0.87,0.87,0,*78
1495339291.57,36503,17.5,73932.3,1.71,0.95,0.95,0,*79
1495339292.81,36504,17.5,73930.3,1.71,0.95,0.95,0,*7E
1495339294.05,36505,17.5,73926.3,1.71,0.95,0.87,0,*7C
1495339295.3,36506,17.5,73926.8,1.71,0.87,0.87,0,*7C
1495339296.54,36507,17.44,73920.0,1.71,0.83,0.87,0,*79
1495339297.74,36508,17.5,73916.3,1.73,0.97,1.01,0,*4E
1495339298.97,36509,17.44,73920.0,1.73,0.97,0.91,0,*77
1495339300.22,36510,17.44,73920.3,1.73,0.91,0.87,0,*7E
1495339301.45,36511,17.5,73926.0,1.71,0.95,0.95,0,*7A
1495339302.69,36512,17.44,73922.3,1.71,0.95,0.95,0,*79
1495339303.88,36513,17.44,73918.0,1.71,0.97,0.97,0,*78
1495339305.12,36514,17.5,73914.3,1.71,0.95,0.95,0,*7F
1495339306.32,36515,17.44,73924.8,1.73,0.97,1.01,0,*42
1495339307.53,36516,17.5,73920.8,1.73,0.87,0.97,0,*7E
1495339308.75,36517,17.44,73922.5,1.73,0.91,0.97,0,*78
1495339309.99,36518,17.5,73930.0,1.71,0.95,0.95,0,*73
1495339311.19,36519,17.5,73926.0,1.73,1.05,1.01,0,*74
1495339312.41,36520,17.5,73918.8,1.71,0.97,0.95,0,*7A
1495339313.63,36521,17.44,73926.8,1.71,0.97,0.95,0,*7B
1495339314.83,36522,17.5,73932.0,1.71,0.97,1.01,0,*44
1495339316.09,36523,17.44,73926.5,1.71,1.09,1.09,0,*7B
1495339317.34,36524,17.44,73916.5,1.73,1.17,1.13,0,*7A
1495339318.54,36525,17.44,73920.8,1.73,1.01,1.01,0,*7F
1495339319.74,36526,17.44,73920.3,1.73,1.01,1.05,0,*78
1495339320.97,36527,17.44,73916.8,1.73,1.05,1.13,0,*7A
1495339322.23,36528,17.44,73922.0,1.73,1.13,1.13,0,*72
1495339323.49,36529,17.5,73920.0,1.73,1.17,1.13,0,*77
1495339324.69,36530,17.44,73914.8,1.73,1.01,1.01,0,*7B
1495339325.89,36531,17.44,73920.5,1.73,1.05,1.05,0,*7A
1495339327.09,36532,17.44,73912.3,1.73,1.01,1.01,0,*79
1495339328.28,36533,17.5,73918.8,1.73,0.97,0.97,0,*78
1495339329.48,36534,17.44,73918.0,1.73,1.01,1.01,0,*7F
1495339330.7,36535,17.44,73914.8,1.73,0.91,0.97,0,*78
1495339331.93,36536,17.44,73908.3,1.75,0.91,0.87,0,*7C
1495339333.17,36537,17.5,73918.5,1.71,0.95,0.95,0,*7E
1495339334.36,36538,17.44,73922.8,1.73,0.97,0.97,0,*73
1495339335.58,36539,17.44,73914.3,1.73,0.91,0.97,0,*74
1495339336.83,36540,17.44,73912.0,1.73,0.91,0.91,0,*7C
1495339338.04,36541,17.44,73918.8,1.71,0.95,0.97,0,*7D
1495339339.24,36542,17.5,73918.0,1.75,0.91,0.97,0,*7E
1495339340.44,36543,17.44,73918.8,1.73,0.97,0.97,0,*7F
1495339341.63,36544,17.5,73918.8,1.73,0.97,1.05,0,*42
1495339342.84,36545,17.44,73920.3,1.73,1.01,1.05,0,*7D
1495339344.04,36546,17.44,73920.0,1.73,1.01,1.01,0,*7A
1495339345.29,36547,17.44,73912.5,1.73,0.91,0.91,0,*7B
1495339346.51,36548,17.44,73914.3,1.73,0.91,0.97,0,*72
1495339347.71,36549,17.44,73922.5,1.73,1.01,1.05,0,*71
1495339348.91,36550,17.44,73924.0,1.73,0.97,1.01,0,*43
1495339350.1,36551,17.44,73918.8,1.73,0.97,0.97,0,*7C
1495339351.29,36552,17.44,73908.3,1.73,0.97,0.97,0,*7F
1495339352.54,36553,17.44,73910.3,1.73,0.79,0.87,0,*7F
1495339353.73,36554,17.44,73910.8,1.73,0.97,0.97,0,*79
1495339354.94,36555,17.44,73910.5,1.71,0.95,0.97,0,*78
1495339356.14,36556,17.44,73922.5,1.73,1.01,1.01,0,*7B
1495339357.34,36557,17.44,73922.8,1.73,1.01,1.01,0,*7A
1495339358.55,36558,17.5,73916.0,1.73,1.01,1.01,0,*75
1495339359.74,36559,17.44,73914.3,1.73,1.01,0.97,0,*4A
1495339360.93,36560,17.44,73924.5,1.73,0.97,0.97,0,*7E
1495339362.13,36561,17.44,73920.8,1.73,1.01,1.01,0,*7F
1495339363.33,36562,17.44,73926.0,1.73,1.01,1.01,0,*7C
1495339364.53,36563,17.44,73922.3,1.73,1.01,1.01,0,*7D
1495339365.73,36564,17.44,73916.5,1.71,0.97,0.97,0,*78
1495339366.95,36565,17.44,73922.3,1.71,0.95,1.01,0,*45
1495339368.14,36566,17.44,73922.3,1.73,0.97,1.01,0,*46
1495339369.34,36567,17.5,73924.3,1.73,0.97,1.01,0,*47
1495339370.54,36568,17.44,73922.5,1.73,1.01,1.01,0,*76
1495339371.74,36569,17.5,73930.5,1.73,1.01,1.01,0,*77
1495339372.94,36570,17.44,73924.3,1.71,0.97,0.97,0,*7D
1495339374.14,36571,17.44,73924.8,1.73,1.01,1.01,0,*7E
1495339375.36,36572,17.44,73924.0,1.73,0.97,0.91,0,*7B
1495339376.56,36573,17.44,73912.8,1.73,0.97,1.01,0,*42
1495339377.81,36574,17.44,73918.3,1.73,0.87,0.91,0,*7C
1495339379.0,36575,17.44,73922.0,1.73,0.97,0.97,0,*7A
1495339380.2,36576,17.44,73922.5,1.73,1.05,1.01,0,*7D
1495339381.4,36577,17.44,73926.5,1.73,1.01,1.01,0,*78
1495339382.6,36578,17.44,73920.0,1.71,0.97,0.97,0,*75
1495339383.85,36579,17.44,73916.8,1.73,0.87,0.91,0,*71
1495339385.07,36580,17.44,73920.0,1.73,0.97,0.91,0,*76
1495339386.27,36581,17.44,73922.3,1.73,0.97,0.97,0,*71
1495339387.46,36582,17.44,73924.5,1.73,1.01,0.97,0,*4C
1495339388.65,36583,17.44,73934.0,1.73,1.01,0.97,0,*4D
1495339389.86,36584,17.44,73936.3,1.73,1.01,1.01,0,*74
1495339391.06,36585,17.44,73922.3,1.73,1.01,1.01,0,*75
1495339392.25,36586,17.44,73924.0,1.73,0.97,0.97,0,*76
1495339393.49,36587,17.44,73922.3,1.71,0.95,0.95,0,*75
1495339394.68,36588,17.44,73924.5,1.73,0.97,1.01,0,*46
1495339395.88,36589,17.44,73930.8,1.73,1.01,1.01,0,*79
1495339397.09,36590,17.44,73928.3,1.73,1.05,1.05,0,*71
1495339398.29,36591,17.44,73928.5,1.73,1.01,1.01,0,*70
1495339399.49,36592,17.44,73940.0,1.73,1.01,1.05,0,*77
1495339400.68,36593,17.44,73928.8,1.73,0.97,0.97,0,*72
1495339401.91,36594,17.44,73926.3,1.73,0.97,0.91,0,*73
1495339403.14,36595,17.44,73916.3,1.71,0.95,0.95,0,*76
1495339404.33,36596,17.44,73928.3,1.73,0.97,0.97,0,*77
1495339405.53,36597,17.44,73928.8,1.73,1.01,0.97,0,*48
1495339406.72,36598,17.44,73930.3,1.73,0.97,0.97,0,*79
1495339407.98,36599,17.44,73924.3,1.73,0.91,0.91,0,*78
1495339409.22,36600,17.44,73924.8,1.71,0.83,0.83,0,*79
1495339410.44,36601,17.44,73920.5,1.73,0.91,0.97,0,*7C
1495339411.63,36602,17.44,73924.8,1.73,0.97,0.97,0,*79
1495339412.83,36603,17.44,73916.8,1.73,0.97,1.01,0,*46
1495339414.03,36604,17.44,73922.8,1.73,1.01,1.05,0,*7B
1495339415.23,36605,17.5,73938.0,1.73,1.01,1.01,0,*7E
1495339416.44,36606,17.44,73932.5,1.71,0.95,0.97,0,*7D
1495339417.69,36607,17.44,73928.8,1.71,0.87,0.95,0,*7D
1495339418.9,36608,17.44,73924.3,1.71,0.95,0.97,0,*73
1495339420.1,36609,17.44,73910.0,1.73,0.97,1.01,0,*4C
1495339421.33,36610,17.44,73912.5,1.71,0.95,0.95,0,*78
1495339422.53,36611,17.44,73914.0,1.73,0.97,0.97,0,*7B
1495339423.72,36612,17.44,73918.3,1.73,0.97,0.97,0,*78
1495339424.91,36613,17.44,73918.8,1.73,1.01,0.97,0,*47
1495339426.11,36614,17.44,73930.3,1.71,1.01,0.97,0,*42
1495339427.34,36615,17.44,73922.3,1.73,1.05,1.13,0,*78
1495339428.54,36616,17.44,73918.0,1.73,1.01,1.01,0,*7C
1495339429.78,36617,17.44,73918.3,1.73,0.87,0.83,0,*79
1495339430.98,36618,17.44,73920.0,1.73,1.01,1.01,0,*72
1495339432.18,36619,17.44,73926.3,1.71,1.01,0.97,0,*4F
1495339433.38,36620,17.44,73918.8,1.73,1.01,1.05,0,*7D
1495339434.58,36621,17.44,73918.5,1.73,1.05,1.01,0,*7C
1495339435.8,36622,17.44,73914.5,1.71,0.95,0.97,0,*7B
1495339437.01,36623,17.44,73918.3,1.71,0.95,0.97,0,*7A
1495339438.26,36624,17.44,73912.3,1.73,0.91,0.91,0,*7D
1495339439.45,36625,17.5,73912.8,1.73,0.97,0.97,0,*7C
1495339440.66,36626,17.44,73916.3,1.73,1.01,1.01,0,*7F
1495339441.85,36627,17.44,73918.0,1.71,0.97,0.97,0,*7C
1495339443.05,36628,17.44,73914.3,1.73,1.01,1.01,0,*71
1495339444.27,36629,17.44,73912.3,1.73,0.91,1.01,0,*48
1495339445.51,36630,17.44,73916.0,1.71,0.95,0.95,0,*7A
1495339446.75,36631,17.44,73920.3,1.71,0.87,0.95,0,*78
1495339447.94,36632,17.44,73918.8,1.73,0.97,0.97,0,*7A
1495339449.14,36633,17.44,73918.3,1.73,0.97,0.97,0,*7B
1495339450.34,36634,17.44,73914.5,1.73,1.05,1.05,0,*7C
1495339451.54,36635,17.44,73916.5,1.71,1.01,0.97,0,*41
1495339452.74,36636,17.44,73914.8,1.73,1.01,1.01,0,*7E
1495339453.94,36637,17.44,73916.3,1.71,0.97,1.01,0,*43
1495339455.14,36638,17.44,73912.5,1.73,1.05,1.01,0,*74
1495339456.34,36639,17.44,73922.0,1.73,1.01,1.01,0,*71
1495339457.53,36640,17.44,73920.3,1.71,0.97,0.97,0,*7D
1495339458.75,36641,17.44,73918.3,1.73,0.91,0.97,0,*78
1495339460.0,36642,17.44,73920.5,1.71,0.87,0.87,0,*7F
1495339461.22,36643,17.44,73924.5,1.73,0.91,0.97,0,*7A
1495339462.45,36644,17.44,73928.8,1.71,0.95,0.95,0,*79
1495339463.69,36645,17.44,73920.3,1.71,0.95,0.95,0,*78
1495339464.94,36646,17.44,73922.5,1.71,0.87,0.87,0,*7B
1495339466.19,36647,17.44,73924.0,1.73,0.91,0.91,0,*78
1495339467.44,36648,17.44,73922.5,1.73,0.79,0.79,0,*77
1495339468.67,36649,17.44,73930.3,1.71,0.95,0.95,0,*74
1495339469.89,36650,17.44,73932.5,1.71,0.95,0.97,0,*7E
1495339471.13,36651,17.44,73926.5,1.71,0.87,0.87,0,*7D
1495339472.38,36652,17.44,73924.8,1.73,0.87,0.79,0,*7D
1495339473.57,36653,17.44,73934.5,1.73,0.97,1.01,0,*43
1495339474.77,36654,17.44,73932.8,1.73,1.01,1.01,0,*7A
1495339475.99,36655,17.44,73920.8,1.71,0.97,0.95,0,*7B
1495339477.22,36656,17.44,73924.8,1.73,0.97,0.91,0,*7E
1495339478.46,36657,17.44,73928.8,1.71,0.87,0.95,0,*78
1495339479.65,36658,17.44,73930.3,1.73,0.97,0.97,0,*76
1495339480.85,36659,17.44,73930.0,1.71,0.97,0.97,0,*75
1495339482.04,36660,17.44,73926.5,1.71,0.97,0.97,0,*7F
1495339483.23,36661,17.44,73922.3,1.73,0.97,0.97,0,*7C
1495339484.47,36662,17.44,73926.3,1.71,0.95,0.95,0,*7D
1495339485.7,36663,17.44,73916.3,1.71,0.95,0.95,0,*7C
1495339486.93,36664,17.44,73914.0,1.73,0.97,0.91,0,*7F
1495339488.18,36665,17.44,73916.3,1.73,0.91,0.87,0,*7F
1495339489.42,36666,17.44,73918.8,1.71,0.95,0.87,0,*7A
1495339490.66,36667,17.44,73918.8,1.71,0.95,0.95,0,*78
1495339491.89,36668,17.44,73922.3,1.73,0.97,0.91,0,*73
1495339493.12,36669,17.44,73926.8,1.71,0.95,0.95,0,*76
1495339494.37,36670,17.44,73924.0,1.71,0.87,0.87,0,*7E
1495339495.56,36671,17.44,73922.0,1.73,0.97,0.97,0,*7D
1495339496.76,36672,17.44,73930.5,1.73,0.97,0.97,0,*7E
1495339497.96,36673,17.44,73928.0,1.71,1.01,1.01,0,*7D
1495339499.19,36674,17.44,73932.5,1.71,1.09,1.01,0,*72
1495339500.39,36675,17.44,73934.5,1.73,1.01,1.05,0,*7D
1495339501.59,36676,17.44,73934.3,1.73,1.01,1.01,0,*7A
1495339502.79,36677,17.44,73932.5,1.71,1.01,0.97,0,*47
1495339503.98,36678,17.44,73934.3,1.73,0.97,0.97,0,*74
1495339505.19,36679,17.44,73936.8,1.71,0.95,0.97,0,*75
1495339506.46,36680,17.44,73932.3,1.71,1.09,1.09,0,*71
1495339507.65,36681,17.5,73932.0,1.73,1.01,1.05,0,*76
1495339508.85,36682,17.44,73926.0,1.73,1.01,0.97,0,*4F
1495339510.05,36683,17.44,73932.5,1.71,0.97,1.01,0,*4C
1495339511.25,36684,17.44,73936.3,1.73,1.05,1.05,0,*77
1495339512.45,36685,17.44,73928.8,1.73,1.01,1.01,0,*76
1495339513.65,36686,17.44,73924.8,1.73,1.05,1.05,0,*75
1495339514.85,36687,17.44,73926.8,1.73,1.05,1.01,0,*70
1495339516.05,36688,17.44,73934.3,1.73,1.01,0.97,0,*45
1495339517.25,36689,17.44,73934.0,1.73,1.05,1.01,0,*7E
1495339518.45,36690,17.44,73934.5,1.73,1.05,1.05,0,*72
1495339519.68,36691,17.44,73930.5,1.73,1.05,1.17,0,*70
1495339520.88,36692,17.44,73930.3,1.73,1.01,1.01,0,*70
1495339522.08,36693,17.44,73926.5,1.73,1.01,1.05,0,*75
1495339523.28,36694,17.44,73926.8,1.73,1.01,1.05,0,*72
1495339524.48,36695,17.44,73934.3,1.73,1.05,1.01,0,*73
1495339525.68,36696,17.44,73938.5,1.71,1.01,0.97,0,*48
1495339526.88,36697,17.44,73932.8,1.73,1.01,1.01,0,*75
1495339528.1,36698,17.44,73928.0,1.73,0.91,1.01,0,*42
1495339529.3,36699,17.44,73926.5,1.73,1.01,1.01,0,*7B
1495339530.5,36700,17.44,73934.0,1.73,1.01,1.01,0,*7A
1495339531.7,36701,17.44,73928.8,1.73,1.01,1.01,0,*7B
1495339532.91,36702,17.44,73932.8,1.73,1.01,1.01,0,*78
1495339534.11,36703,17.44,73934.3,1.73,1.01,1.01,0,*79
1495339535.31,36704,17.44,73936.8,1.73,1.01,1.05,0,*7A
1495339536.53,36705,17.44,73922.5,1.73,1.01,1.13,0,*7C
1495339537.74,36706,17.44,73918.5,1.73,1.05,1.05,0,*7C
1495339538.96,36707,17.44,73908.0,1.73,0.97,0.91,0,*7B
1495339540.16,36708,17.44,73914.3,1.73,1.01,0.97,0,*4C
1495339541.33,36709,17.5,73922.3,1.75,1.01,0.97,0,*4B
1495339542.53,36710,17.44,73918.3,1.75,0.91,0.97,0,*7B
1495339543.73,36711,17.44,73922.0,1.75,0.97,0.91,0,*7A
1495339544.96,36712,17.44,73924.8,1.77,0.95,1.05,0,*45
1495339546.21,36713,17.44,73928.5,1.73,0.87,0.91,0,*7F
1495339547.41,36714,17.44,73930.8,1.71,0.97,1.01,0,*43
1495339548.61,36715,17.44,73928.3,1.73,0.97,1.01,0,*40
1495339549.85,36716,17.44,73932.8,1.73,0.87,0.87,0,*7D
1495339551.04,36717,17.44,73932.5,1.73,0.97,0.97,0,*7C
1495339552.24,36718,17.44,73934.3,1.73,1.01,1.01,0,*73
1495339553.45,36719,17.44,73932.0,1.73,1.05,1.05,0,*72
1495339554.65,36720,17.44,73932.0,1.73,1.05,1.05,0,*78
1495339555.85,36721,17.44,73928.0,1.73,1.01,1.01,0,*79
1495339557.08,36722,17.44,73928.8,1.71,0.95,0.95,0,*78
1495339558.28,36723,17.44,73928.8,1.73,1.01,0.97,0,*45
1495339559.51,36724,17.44,73920.8,1.73,0.97,0.91,0,*7A
1495339560.71,36725,17.44,73926.0,1.73,1.01,1.01,0,*7D
1495339561.91,36726,17.44,73922.8,1.73,1.01,1.01,0,*7E
1495339563.11,36727,17.44,73912.5,1.73,1.01,1.01,0,*7F
1495339564.28,36728,17.44,73910.3,1.75,0.97,0.97,0,*76
1495339565.48,36729,17.44,73914.3,1.75,0.91,0.97,0,*71
1495339566.68,36730,17.44,73910.3,1.75,0.97,0.91,0,*79
1495339567.86,36731,17.44,73910.8,1.75,0.97,0.97,0,*7E
1495339569.05,36732,17.44,73914.0,1.75,0.91,0.97,0,*7B
1495339570.23,36733,17.44,73912.3,1.75,0.97,0.97,0,*7C
1495339571.43,36734,17.44,73920.0,1.73,1.01,1.05,0,*79
1495339572.63,36735,17.44,73920.0,1.73,1.01,1.01,0,*7C
1495339573.83,36736,17.44,73922.3,1.75,1.05,1.17,0,*7A
1495339575.01,36737,17.44,73920.8,1.75,1.01,1.05,0,*7C
1495339576.22,36738,17.44,73930.3,1.75,1.01,1.13,0,*74
1495339577.4,36739,17.44,73920.0,1.75,1.01,1.01,0,*76
1495339578.61,36740,17.44,73920.8,1.75,1.05,1.13,0,*7F
1495339579.81,36741,17.44,73922.5,1.75,1.01,1.13,0,*7A
1495339581.0,36742,17.44,73930.3,1.75,1.05,1.01,0,*7E
1495339582.17,36743,17.44,73930.3,1.75,1.01,1.01,0,*7B
1495339583.35,36744,17.44,73930.5,1.75,1.01,1.01,0,*7C
1495339584.54,36745,17.44,73926.5,1.75,1.05,1.05,0,*7D
1495339585.74,36746,17.44,73926.3,1.75,1.01,1.13,0,*7D
1495339586.92,36747,17.44,73922.3,1.75,1.01,1.01,0,*7F
1495339588.19,36748,17.44,73926.8,1.77,1.09,1.09,0,*72
1495339589.43,36749,17.44,73924.5,1.75,1.13,1.13,0,*71
1495339590.61,36750,17.44,73922.8,1.75,1.05,1.05,0,*79
1495339591.81,36751,17.44,73922.0,1.75,1.05,1.13,0,*7F
1495339593.02,36752,17.44,73918.0,1.75,1.01,1.13,0,*78
1495339594.25,36753,17.44,73920.0,1.75,1.17,1.13,0,*7E
1495339595.47,36754,17.44,73912.8,1.75,1.21,1.05,0,*7B
1495339596.67,36755,17.44,73914.8,1.75,1.05,1.13,0,*7B
1495339597.85,36756,17.44,73918.5,1.75,1.05,1.01,0,*7B
1495339599.09,36757,17.44,73926.8,1.77,1.09,1.05,0,*70
1495339600.35,36758,17.44,73926.0,1.77,1.09,1.21,0,*79
1495339601.56,36759,17.44,73928.3,1.75,1.05,1.13,0,*77
1495339602.82,36760,17.44,73924.3,1.77,1.09,1.17,0,*77
1495339604.03,36761,17.44,73920.0,1.77,1.01,1.01,0,*79
1495339605.27,36762,17.44,73930.0,1.77,0.95,0.95,0,*7A
1495339606.51,36763,17.44,73938.0,1.77,0.95,0.95,0,*7B
1495339607.69,36764,17.44,73936.3,1.75,0.97,1.01,0,*40
1495339608.87,36765,17.44,73938.8,1.75,0.97,1.01,0,*41
1495339610.04,36766,17.44,73938.3,1.75,1.01,0.97,0,*42
1495339611.25,36767,17.44,73924.3,1.77,1.01,1.01,0,*7F
1495339612.43,36768,17.44,73918.8,1.75,1.05,1.01,0,*76
1495339613.64,36769,17.44,73918.0,1.77,1.01,1.05,0,*75
1495339614.84,36770,17.44,73922.5,1.77,1.01,1.01,0,*79
1495339616.05,36771,17.44,73930.8,1.77,1.01,1.01,0,*78
1495339617.28,36772,17.44,73930.5,1.77,1.05,1.09,0,*77
1495339618.47,36773,17.44,73922.3,1.75,1.05,1.05,0,*78
1495339619.69,36774,17.44,73934.0,1.77,1.01,0.95,0,*41
1495339620.9,36775,17.44,73928.3,1.77,1.01,1.01,0,*7C
1495339622.1,36776,17.44,73916.3,1.77,1.05,1.05,0,*7F
1495339623.28,36777,17.44,73914.3,1.75,0.97,1.01,0,*42
1495339624.51,36778,17.44,73918.8,1.77,0.97,0.91,0,*77
1495339625.68,36779,17.44,73928.8,1.75,0.97,0.97,0,*72
1495339626.89,36780,17.44,73920.5,1.77,1.01,1.05,0,*72
1495339628.07,36781,17.44,73916.5,1.75,1.01,1.05,0,*71
1495339629.24,36782,17.44,73912.3,1.75,0.97,0.97,0,*76
1495339630.42,36783,17.44,73912.8,1.75,0.97,1.01,0,*49
1495339631.63,36784,17.44,73910.0,1.77,1.05,1.01,0,*76
1495339632.8,36785,17.44,73914.5,1.75,0.97,0.97,0,*71
1495339633.98,36786,17.44,73920.0,1.75,0.97,1.05,0,*48
1495339635.24,36787,17.44,73920.5,1.77,1.09,1.17,0,*7E
1495339636.46,36788,17.44,73916.5,1.77,1.05,0.95,0,*46
1495339637.69,36789,17.44,73916.0,1.75,0.91,0.87,0,*7A
1495339638.87,36790,17.44,73920.8,1.75,0.97,1.01,0,*4B
1495339640.05,36791,17.44,73924.0,1.75,0.97,1.01,0,*4A
1495339641.23,36792,17.44,73930.0,1.75,0.97,1.01,0,*49
1495339642.4,36793,17.44,73926.3,1.75,0.97,1.01,0,*48
1495339643.63,36794,17.44,73908.5,1.75,0.91,0.91,0,*71
1495339644.81,36795,17.44,73914.5,1.75,0.97,1.05,0,*4A
1495339645.99,36796,17.44,73924.8,1.75,1.01,0.97,0,*4D
1495339647.17,36797,17.44,73904.0,1.75,1.01,1.01,0,*72
1495339648.39,36798,17.44,73910.0,1.73,0.91,0.97,0,*7D
1495339649.63,36799,17.44,73916.5,1.73,0.55,0.51,0,*7E
1495339650.85,36800,17.44,73912.8,1.73,0.91,0.97,0,*73
1495339652.05,36801,17.44,73908.8,1.71,0.97,0.97,0,*76
1495339653.23,36802,17.44,73906.8,1.75,1.05,1.01,0,*75
1495339654.41,36803,17.44,73916.0,1.75,1.01,1.01,0,*70
1495339655.59,36804,17.44,73918.8,1.75,1.01,1.01,0,*77
1495339656.77,36805,17.44,73918.5,1.75,1.01,1.01,0,*76
1495339657.95,36806,17.44,73910.0,1.75,1.05,1.01,0,*71
1495339659.13,36807,17.44,73912.5,1.75,1.05,1.05,0,*74
1495339660.31,36808,17.44,73912.8,1.75,1.01,1.05,0,*7F
1495339661.49,36809,17.44,73916.0,1.75,1.01,1.01,0,*7A
1495339662.67,36810,17.44,73910.8,1.75,1.01,1.01,0,*72
1495339663.85,36811,17.44,73914.8,1.75,1.01,1.01,0,*73
1495339665.03,36812,17.44,73916.0,1.75,1.01,1.01,0,*70
1495339666.23,36813,17.44,73920.0,1.75,0.97,0.87,0,*70
1495339667.4,36814,17.44,73920.8,1.75,0.97,0.97,0,*76
1495339668.57,36815,17.44,73922.3,1.75,0.97,0.97,0,*77
1495339669.81,36816,17.44,73918.8,1.75,0.91,0.91,0,*74
1495339671.01,36817,17.44,73906.5,1.75,0.97,0.91,0,*73
1495339672.25,36818,17.44,73902.8,1.75,0.91,0.91,0,*7A
1495339673.42,36819,17.44,73900.0,1.75,0.97,0.97,0,*7B
1495339674.6,36820,17.44,73910.0,1.75,1.05,1.01,0,*75
1495339675.78,36821,17.44,73910.0,1.75,1.01,1.01,0,*70
1495339676.96,36822,17.44,73916.5,1.75,1.01,1.01,0,*73
1495339678.16,36823,17.44,73914.0,1.75,0.91,0.97,0,*74
1495339679.33,36824,17.44,73920.8,1.75,1.01,0.97,0,*4B
1495339680.53,36825,17.44,73930.5,1.73,1.01,1.01,0,*72
1495339681.71,36826,17.44,73924.5,1.75,1.01,1.01,0,*77
1495339682.88,36827,17.44,73924.0,1.75,0.97,0.97,0,*76
1495339684.08,36828,17.44,73928.8,1.73,1.05,1.05,0,*7F
1495339685.32,36829,17.44,73930.5,1.75,1.13,1.13,0,*78
1495339686.52,36830,17.44,73932.5,1.73,0.97,1.01,0,*48
1495339687.72,36831,17.44,73940.0,1.73,1.01,1.05,0,*73
1495339688.9,36832,17.44,73942.0,1.75,1.01,1.01,0,*72
1495339690.11,36833,17.44,73934.0,1.77,1.05,1.01,0,*75
1495339691.29,36834,17.44,73930.3,1.75,1.05,1.01,0,*70
1495339692.52,36835,17.44,73936.8,1.73,1.05,1.13,0,*74
1495339693.7,36836,17.44,73934.3,1.75,1.01,1.01,0,*76
1495339694.88,36837,17.44,73930.8,1.75,1.05,1.05,0,*77
1495339696.08,36838,17.44,73926.3,1.77,1.05,1.05,0,*7A
1495339697.27,36839,17.44,73922.5,1.75,1.05,1.05,0,*79
1495339698.48,36840,17.44,73914.8,1.75,1.13,1.05,0,*70
1495339699.66,36841,17.44,73918.0,1.75,1.01,1.01,0,*76
1495339700.89,36842,17.44,73914.8,1.75,0.91,0.91,0,*75
1495339702.12,36843,17.44,73914.5,1.75,0.91,0.91,0,*74
1495339703.36,36844,17.44,73920.3,1.75,0.91,0.91,0,*73
1495339704.53,36845,17.44,73924.3,1.75,0.97,0.97,0,*72
1495339705.71,36846,17.44,73924.5,1.75,1.01,1.05,0,*75
1495339706.89,36847,17.44,73926.0,1.75,1.01,1.01,0,*70
1495339708.13,36848,17.44,73926.3,1.77,0.95,0.95,0,*7D
1495339709.32,36849,17.44,73926.3,1.73,0.97,0.97,0,*78
1495339710.49,36850,17.44,73924.5,1.75,0.97,0.97,0,*76
1495339711.67,36851,17.44,73938.5,1.75,1.01,1.01,0,*77
1495339712.85,36852,17.44,73930.3,1.75,1.01,1.01,0,*74
1495339714.09,36853,17.44,73934.3,1.75,0.91,0.91,0,*75
1495339715.26,36854,17.44,73930.5,1.75,0.97,0.97,0,*72
1495339716.43,36855,17.44,73926.0,1.75,0.97,0.97,0,*73
1495339717.6,36856,17.44,73926.3,1.75,0.97,0.97,0,*70
1495339718.78,36857,17.44,73932.3,1.75,1.05,1.05,0,*71
1495339719.96,36858,17.44,73932.0,1.75,1.05,1.05,0,*7E
1495339721.15,36859,17.44,73934.3,1.75,1.05,1.05,0,*7F
1495339722.33,36860,17.44,73926.3,1.75,1.05,1.01,0,*71
1495339723.51,36861,17.44,73926.8,1.75,1.01,1.01,0,*74
1495339724.69,36862,17.44,73930.8,1.75,1.01,1.05,0,*73
1495339725.87,36863,17.44,73928.0,1.75,1.05,1.05,0,*76
1495339727.04,36864,17.44,73918.3,1.75,0.97,1.01,0,*4F
1495339728.22,36865,17.44,73920.3,1.75,0.97,1.01,0,*4E